Location: ??
(35.4627°N, 139.3695°E)
Time: 06:16:43
(UTC+00:00)

Cosmos 1606 - Pass Details

Date: 25 November 2020
Orbit: 502 x 527 km, 82.5° (Epoch: 20 January)

Event Time Altitude Azimuth Distance (km) Brightness Sun altitude
Exits shadow 20:25:13 19° 269° (W) 1,249 4.0 -12.9°
Drops below altitude 10° 20:27:51 10° 224° (SW) 1,722 5.1 -12.3°
Sets 20:30:23 0° 207° (SSW) 2,597 6.2 -11.9°
